• Em Portugal
  • Lista de países
  • Para 7 dias
  • Temperatura da água
  • Mapas de satélite
  • Mapa do tempo
  • Widgets de tempo
  • user-avatar
    Iniciar Sessão

    Previsão horária em Ponizove

    Hoje, 15 Novembro, Quinta-feira

    Tempo Temperatura Precipitação Vento Pressão Humidade
    00:00 -1°C° 0 mm 1 m/s 750 mmHg 95%
    01:00 -1°C° 0 mm 1 m/s 751 mmHg 95%
    02:00 -1°C° 0 mm 1 m/s 751 mmHg 95%
    03:00 -1°C° 0 mm 1 m/s 752 mmHg 95%
    04:00 -1°C° 0 mm 1 m/s 752 mmHg 95%
    05:00 -1°C° 0 mm 1 m/s 752 mmHg 95%
    06:00 -1°C° 0 mm 1 m/s 753 mmHg 95%
    07:00 -1°C° 0 mm 1 m/s 754 mmHg 95%
    08:00 -1°C° 0 mm 1 m/s 754 mmHg 95%
    09:00 -3°C° 0 mm 2 m/s 755 mmHg 95%
    10:00 -2°C° 0 mm 2 m/s 755 mmHg 95%
    11:00 -1°C° 0 mm 2 m/s 756 mmHg 95%
    12:00 -1°C° 0 mm 2 m/s 756 mmHg 95%
    13:00 -1°C° 0 mm 2 m/s 757 mmHg 96%
    14:00 +2°C° 0 mm 1 m/s 757 mmHg 96%
    15:00 +1°C° 0 mm 1 m/s 757 mmHg 96%
    16:00 +1°C° 0 mm 1 m/s 758 mmHg 96%
    17:00 -1°C° 0 mm 2 m/s 758 mmHg 95%
    18:00 +1°C° 0 mm 1 m/s 759 mmHg 95%
    19:00 +1°C° 0 mm 1 m/s 759 mmHg 95%
    20:00 +1°C° 0 mm 1 m/s 760 mmHg 94%
    21:00 +1°C° 0 mm 1 m/s 760 mmHg 94%
    22:00 +1°C° 0 mm 1 m/s 760 mmHg 94%
    23:00 +1°C° 0 mm 1 m/s 760 mmHg 94%

    Amanhã, 16 Novembro, Sexta-feira

    Tempo Temperatura Precipitação Vento Pressão Humidade
    00:00 0°C° 0 mm 1 m/s 761 mmHg 93%
    01:00 0°C° 0 mm 1 m/s 761 mmHg 93%
    02:00 0°C° 0 mm 1 m/s 762 mmHg 93%
    03:00 0°C° 0 mm 1 m/s 762 mmHg 92%
    04:00 -1°C° 0 mm 1 m/s 762 mmHg 92%
    05:00 -1°C° 0 mm 1 m/s 762 mmHg 92%
    06:00 -1°C° 0 mm 1 m/s 763 mmHg 92%
    07:00 -4°C° 0 mm 2 m/s 763 mmHg 91%
    08:00 -4°C° 0 mm 2 m/s 763 mmHg 91%
    09:00 -3°C° 0 mm 2 m/s 764 mmHg 88%
    10:00 -2°C° 0 mm 2 m/s 764 mmHg 86%
    11:00 -1°C° 0 mm 2 m/s 764 mmHg 83%
    12:00 +1°C° 0 mm 1 m/s 764 mmHg 84%
    13:00 +1°C° 0 mm 1 m/s 764 mmHg 84%
    14:00 +1°C° 0 mm 1 m/s 764 mmHg 85%
    15:00 0°C° 0 mm 1 m/s 764 mmHg 84%
    16:00 -1°C° 0 mm 1 m/s 764 mmHg 84%
    17:00 -4°C° 0 mm 2 m/s 764 mmHg 84%
    18:00 -2°C° 0 mm 1 m/s 764 mmHg 83%
    19:00 -2°C° 0 mm 1 m/s 764 mmHg 82%
    20:00 -2°C° 0 mm 1 m/s 764 mmHg 81%
    21:00 -3°C° 0 mm 1 m/s 764 mmHg 79%
    22:00 -3°C° 0 mm 1 m/s 765 mmHg 78%
    23:00 -3°C° 0 mm 1 m/s 765 mmHg 76%

    Depois de amanhã, 17 Novembro, Sábado

    Tempo Temperatura Precipitação Vento Pressão Humidade
    00:00 -3°C° 0 mm 1 m/s 765 mmHg 75%
    01:00 -3°C° 0 mm 1 m/s 765 mmHg 73%
    02:00 -4°C° 0 mm 0 m/s 765 mmHg 72%
    03:00 -4°C° 0 mm 0 m/s 764 mmHg 71%
    04:00 -4°C° 0 mm 0 m/s 764 mmHg 70%
    05:00 -5°C° 0 mm 0 m/s 764 mmHg 70%
    06:00 -5°C° 0 mm 0 m/s 764 mmHg 70%
    07:00 -4°C° 0 mm 1 m/s 764 mmHg 70%
    08:00 -4°C° 0 mm 1 m/s 764 mmHg 70%
    09:00 -2°C° 0 mm 1 m/s 763 mmHg 70%
    10:00 -1°C° 0 mm 1 m/s 763 mmHg 69%
    11:00 0°C° 0 mm 1 m/s 763 mmHg 69%
    12:00 0°C° 0 mm 1 m/s 762 mmHg 72%
    13:00 -2°C° 0 mm 2 m/s 762 mmHg 74%
    14:00 -1°C° 0 mm 2 m/s 761 mmHg 77%
    15:00 -2°C° 0 mm 2 m/s 761 mmHg 80%
    16:00 -2°C° 0 mm 2 m/s 760 mmHg 82%
    17:00 -4°C° 0 mm 3 m/s 759 mmHg 84%
    18:00 -2°C° 0 mm 3 m/s 759 mmHg 87%
    19:00 -2°C° 0 mm 3 m/s 758 mmHg 89%
    20:00 -1°C° 0 mm 3 m/s 758 mmHg 91%
    21:00 -1°C° 0 mm 3 m/s 757 mmHg 92%
    22:00 -1°C° 0 mm 3 m/s 756 mmHg 93%
    23:00 -2°C° 0 mm 4 m/s 756 mmHg 95%

    18 Novembro, Domingo

    Tempo Temperatura Precipitação Vento Pressão Humidade
    00:00 -2°C° 0 mm 4 m/s 755 mmHg 95%
    01:00 -2°C° 0 mm 4 m/s 754 mmHg 96%
    02:00 -1°C° 0 mm 4 m/s 754 mmHg 96%
    03:00 -1°C° 0.1 mm 4 m/s 753 mmHg 96%
    04:00 -1°C° 0.1 mm 4 m/s 752 mmHg 97%
    05:00 -1°C° 0.1 mm 4 m/s 751 mmHg 97%
    06:00 -1°C° 0.1 mm 4 m/s 751 mmHg 97%
    07:00 -1°C° 0.1 mm 4 m/s 750 mmHg 97%
    08:00 -1°C° 0.1 mm 4 m/s 750 mmHg 97%
    09:00 -1°C° 0.1 mm 4 m/s 749 mmHg 97%
    10:00 0°C° 0.1 mm 5 m/s 749 mmHg 96%
    11:00 0°C° 0.1 mm 5 m/s 749 mmHg 96%
    12:00 0°C° 0.1 mm 5 m/s 749 mmHg 95%
    13:00 0°C° 0.1 mm 5 m/s 748 mmHg 94%
    14:00 0°C° 0.1 mm 5 m/s 748 mmHg 93%
    15:00 0°C° 0.2 mm 5 m/s 748 mmHg 93%
    16:00 -1°C° 0.2 mm 5 m/s 748 mmHg 93%
    17:00 -1°C° 0.2 mm 5 m/s 747 mmHg 93%
    18:00 -1°C° 0.2 mm 5 m/s 747 mmHg 93%
    19:00 -1°C° 0.2 mm 5 m/s 747 mmHg 93%
    20:00 -1°C° 0.2 mm 5 m/s 747 mmHg 94%
    21:00 -1°C° 0.3 mm 5 m/s 747 mmHg 94%
    22:00 -1°C° 0.3 mm 5 m/s 747 mmHg 94%
    23:00 0°C° 0.3 mm 5 m/s 747 mmHg 94%

    19 Novembro, Segunda-feira

    Tempo Temperatura Precipitação Vento Pressão Humidade
    00:00 -1°C° 0.2 mm 5 m/s 747 mmHg 94%
    01:00 -1°C° 0.2 mm 5 m/s 747 mmHg 94%
    02:00 -1°C° 0.2 mm 5 m/s 747 mmHg 94%
    03:00 -1°C° 0.2 mm 5 m/s 747 mmHg 93%
    04:00 -1°C° 0.2 mm 5 m/s 747 mmHg 92%
    05:00 -1°C° 0.2 mm 5 m/s 747 mmHg 92%
    06:00 -1°C° 0.2 mm 5 m/s 748 mmHg 91%
    07:00 -2°C° 0.2 mm 6 m/s 748 mmHg 91%
    08:00 -2°C° 0.2 mm 6 m/s 748 mmHg 90%
    09:00 -2°C° 0.1 mm 6 m/s 749 mmHg 90%
    10:00 -2°C° 0.1 mm 6 m/s 749 mmHg 89%
    11:00 -2°C° 0.1 mm 6 m/s 749 mmHg 89%
    12:00 -1°C° 0.1 mm 5 m/s 749 mmHg 88%
    13:00 -1°C° 0.1 mm 5 m/s 750 mmHg 88%
    14:00 -1°C° 0.1 mm 5 m/s 750 mmHg 88%
    15:00 -2°C° 0.1 mm 5 m/s 750 mmHg 87%
    16:00 -2°C° 0.1 mm 5 m/s 750 mmHg 86%
    17:00 -4°C° 0.1 mm 5 m/s 751 mmHg 86%
    18:00 -4°C° 0 mm 5 m/s 751 mmHg 86%
    19:00 -5°C° 0 mm 5 m/s 751 mmHg 86%
    20:00 -5°C° 0 mm 4 m/s 751 mmHg 86%
    21:00 -5°C° 0 mm 4 m/s 752 mmHg 87%
    22:00 -5°C° 0 mm 4 m/s 752 mmHg 87%
    23:00 -7°C° 0 mm 4 m/s 752 mmHg 88%

    20 Novembro, Terça-feira

    Tempo Temperatura Precipitação Vento Pressão Humidade
    00:00 -7°C° 0 mm 4 m/s 752 mmHg 89%
    01:00 -7°C° 0 mm 4 m/s 752 mmHg 90%
    02:00 -7°C° 0 mm 4 m/s 752 mmHg 91%
    03:00 -7°C° 0 mm 4 m/s 752 mmHg 91%
    04:00 -6°C° 0 mm 3 m/s 752 mmHg 91%
    05:00 -6°C° 0 mm 3 m/s 752 mmHg 91%
    06:00 -5°C° 0 mm 3 m/s 752 mmHg 91%
    07:00 -5°C° 0 mm 3 m/s 752 mmHg 90%
    08:00 -5°C° 0 mm 3 m/s 752 mmHg 89%
    09:00 -4°C° 0 mm 3 m/s 752 mmHg 88%
    10:00 -4°C° 0 mm 3 m/s 752 mmHg 86%
    11:00 -4°C° 0 mm 3 m/s 752 mmHg 85%
    12:00 -2°C° 0 mm 3 m/s 751 mmHg 84%
    13:00 -2°C° 0 mm 3 m/s 751 mmHg 84%
    14:00 -2°C° 0 mm 3 m/s 751 mmHg 84%
    15:00 -2°C° 0 mm 2 m/s 750 mmHg 86%
    16:00 -2°C° 0 mm 2 m/s 750 mmHg 88%
    17:00 -3°C° 0 mm 2 m/s 750 mmHg 89%
    18:00 -3°C° 0 mm 2 m/s 750 mmHg 90%
    19:00 -3°C° 0 mm 2 m/s 750 mmHg 90%
    20:00 -1°C° 0 mm 1 m/s 749 mmHg 90%
    21:00 -1°C° 0 mm 1 m/s 749 mmHg 90%
    22:00 -1°C° 0 mm 1 m/s 749 mmHg 90%
    23:00 -1°C° 0 mm 1 m/s 749 mmHg 89%
    Mostrar mais